Theta_e
321 314 315 310 310 306 309 313 310 311 311 310 325 336 337 334 344 344 338 338 340 338 338 339 341 338 339 340 340 338 339 340 341 342 342 342 342 342 341 341 339 336 333 331 331 335 337 335 334
315 314 311 303 304 304 305 309 312 311 310 306 313 332 329 332 327 331 337 340 340 339 338 338 340 341 340 339 338 337 336 339 339 340 340 342 342 342 341 340 339 336 333 331 330 331 336 334 335
314 312 307 303 303 303 311 311 309 308 307 309 323 316 319 321 320 328 338 340 340 339 337 338 339 339 340 340 339 338 338 339 340 339 340 340 341 340 341 340 338 335 331 330 330 331 331 331 334
312 304 301 305 309 311 311 309 309 308 309 308 310 318 315 315 321 321 337 340 341 338 338 338 338 338 339 338 336 336 338 339 339 340 341 340 339 339 339 337 335 333 330 329 330 330 330 333 333
307 300 303 305 311 311 310 309 309 309 309 309 310 318 314 313 315 316 333 341 340 339 338 337 337 337 340 338 337 338 338 337 338 338 338 339 337 336 336 335 332 330 329 328 329 330 332 332 331
305 300 303 306 311 310 309 308 309 309 309 310 310 312 312 311 313 314 318 340 340 340 339 338 337 336 339 338 336 337 338 338 337 337 337 336 334 333 332 331 330 329 328 327 329 329 332 330 332
306 303 304 305 310 311 310 307 311 311 310 311 309 314 311 309 312 313 313 323 340 341 340 339 338 337 338 337 336 336 338 337 337 337 336 335 334 331 329 329 328 328 327 326 328 329 331 331 332
304 303 308 307 308 311 311 309 310 310 311 307 308 309 310 309 312 313 312 313 317 340 340 340 339 337 338 337 337 336 335 335 335 333 333 331 331 329 328 327 326 326 327 326 328 328 330 328 331
305 306 308 309 309 310 310 310 308 307 308 307 308 309 309 311 312 312 311 312 313 317 328 338 339 338 337 336 338 336 335 333 333 332 331 329 328 327 326 325 324 325 326 324 327 327 329 327 330
306 306 309 308 308 311 311 310 309 309 307 308 308 308 309 310 311 310 310 310 311 312 315 316 318 336 337 336 336 336 335 332 332 331 330 328 327 325 325 324 323 324 326 325 326 327 327 326 328
309 309 310 311 311 311 311 310 309 309 308 306 308 308 306 308 309 308 309 310 310 311 311 313 314 315 319 336 336 336 336 334 332 331 330 327 326 324 323 323 322 323 325 324 328 326 323 324 326
310 310 310 310 310 311 310 309 309 308 308 307 305 305 305 306 306 307 309 310 310 310 310 311 312 313 315 319 335 336 336 334 332 330 328 327 325 323 323 323 322 322 323 323 327 324 321 322 322
311 311 310 310 310 310 309 309 309 307 306 304 304 305 305 305 306 307 308 309 309 310 310 310 310 311 312 317 330 334 335 333 331 330 328 326 325 323 322 322 322 321 323 322 325 323 321 321 323
311 311 310 310 311 310 310 309 308 308 306 307 306 305 305 305 306 308 308 309 311 312 313 313 312 310 310 313 320 329 332 333 331 329 328 327 325 324 322 322 320 322 322 322 322 322 320 321 323
310 311 308 306 309 310 307 309 309 307 307 306 305 305 305 305 307 308 309 311 313 314 314 313 313 314 312 310 316 319 324 330 331 329 328 327 325 324 322 321 319 322 321 321 322 321 318 319 321
305 303 304 306 308 309 309 308 308 306 306 305 305 304 304 308 308 309 311 313 313 312 311 311 310 310 310 314 311 318 322 324 329 330 329 326 325 325 324 321 318 322 320 320 320 318 313 319 320
300 303 307 306 307 307 309 308 306 306 305 304 304 304 304 308 309 310 312 312 312 312 311 311 310 310 311 311 313 317 322 324 326 328 329 327 325 323 323 321 317 321 321 321 318 311 313 317 317
304 305 306 307 306 306 306 305 304 303 304 304 303 303 303 305 308 309 310 311 312 311 311 310 310 311 312 312 313 313 317 322 324 326 329 328 325 323 321 319 318 320 321 320 314 311 315 317 316
307 309 309 306 306 306 305 303 306 306 305 304 304 303 302 304 305 307 306 309 311 311 310 310 310 312 313 313 314 317 320 321 322 323 325 327 325 323 319 318 316 316 317 319 314 311 315 313 314
309 309 305 304 305 306 306 308 306 306 308 306 305 303 304 304 303 304 305 310 311 310 310 311 311 312 314 314 314 317 318 319 320 320 322 323 325 322 321 319 316 317 318 317 315 312 312 312 313
307 308 307 309 306 306 306 304 305 306 307 306 305 304 304 305 304 302 304 310 309 309 310 311 311 312 314 316 315 316 316 317 317 319 319 319 320 321 319 319 318 317 318 316 315 313 312 311 311
307 306 308 308 307 304 307 304 307 305 306 305 304 303 303 302 301 301 304 309 308 308 309 310 311 312 315 316 313 314 316 315 316 317 316 317 317 318 319 317 317 317 315 315 315 313 311 312 311
306 307 308 309 309 307 309 307 307 304 308 306 304 303 303 303 303 302 304 308 307 308 309 310 311 311 314 315 313 313 316 315 315 316 316 317 315 315 317 317 316 315 314 312 311 309 311 313 311
306 306 303 305 307 307 309 307 309 306 306 305 304 304 302 301 303 302 307 306 308 309 309 309 309 310 312 314 314 313 313 313 314 313 314 315 315 314 314 315 316 315 312 311 309 309 310 312 312
305 302 301 301 301 308 305 306 307 305 304 304 304 304 301 302 303 303 303 305 308 307 307 306 307 307 309 314 314 314 313 312 314 314 315 313 312 313 313 313 313 314 313 311 309 308 309 310 311
307 306 298 301 299 300 303 306 304 304 302 304 303 302 300 300 302 303 304 307 306 306 306 305 305 305 307 311 314 314 314 313 313 314 313 312 311 312 312 312 312 312 311 311 309 308 309 310 310
306 308 304 303 301 302 305 303 302 304 303 304 302 301 300 299 302 304 306 305 305 305 305 304 303 304 305 308 313 314 314 313 313 313 312 312 312 311 311 311 311 311 309 310 309 308 308 309 309
307 305 307 304 303 307 304 303 303 305 304 302 301 300 300 300 303 303 305 305 305 305 304 303 303 302 303 306 311 314 314 314 313 312 311 311 311 311 311 310 310 310 309 309 309 308 308 308 309
307 306 307 303 303 305 302 305 301 304 302 302 301 301 301 301 301 302 304 305 305 304 304 302 302 302 303 305 309 313 315 314 313 312 311 311 310 310 310 310 310 309 309 309 308 308 307 307 306
307 308 305 310 306 303 302 305 301 301 301 300 300 300 300 300 298 302 303 304 304 303 303 301 301 302 302 304 308 313 314 314 313 311 311 310 309 309 310 309 309 309 308 308 308 306 305 306 305
Wind_Speed
12 6 3 5 4 5 1 1 2 5 6 5 4 5 5 4 4 3 1 7 10 13 19 17 14 17 17 17 16 15 15 14 15 17 17 18 18 18 19 18 16 13 13 14 14 13 13 13 12
7 1 4 3 4 3 3 4 1 2 3 8 4 3 6 3 3 2 7 13 8 18 23 21 17 15 16 17 15 13 14 15 15 17 16 18 18 19 17 16 15 11 12 13 14 14 13 15 16
2 3 4 4 3 3 3 3 5 6 6 5 3 5 2 3 4 5 10 11 5 15 24 23 21 18 16 17 18 17 15 15 15 16 16 16 17 17 17 15 13 10 12 13 15 15 15 15 17
1 6 4 4 3 0 0 4 3 7 3 7 3 5 2 2 2 8 10 10 7 15 21 21 21 20 18 17 17 18 16 15 16 18 16 15 14 13 12 10 10 10 11 12 14 16 17 17 18
6 3 4 4 1 1 2 3 3 4 3 5 5 1 2 2 3 7 11 11 8 15 19 19 20 22 18 18 17 16 17 16 16 16 15 13 10 8 6 7 8 8 10 12 14 15 16 16 16
4 3 5 2 1 2 2 5 3 3 4 5 5 2 1 3 5 8 10 10 3 13 18 19 18 21 19 17 16 16 17 16 17 17 14 11 10 9 8 7 8 8 10 12 14 15 15 16 15
5 4 4 4 3 1 2 6 2 2 3 3 2 1 3 4 7 8 10 11 8 7 15 17 19 21 18 18 18 18 19 19 16 14 10 10 10 11 9 9 9 10 10 12 15 15 15 16 16
4 4 3 1 3 2 3 6 0 2 2 6 1 1 2 4 9 8 8 10 11 6 8 14 18 20 19 20 20 20 19 19 17 15 13 13 12 11 10 11 10 11 12 14 15 15 15 17 18
2 4 1 3 4 2 3 5 3 2 2 4 4 2 3 7 8 10 11 11 9 9 6 3 13 15 19 22 23 22 20 19 20 18 16 16 16 13 13 12 12 12 14 14 14 15 16 18 18
5 4 5 3 2 0 2 1 4 5 4 2 2 2 8 5 6 8 9 8 8 8 7 8 7 7 18 20 24 23 23 23 22 21 22 20 19 16 14 14 15 15 15 16 16 17 16 18 21
2 3 1 1 2 1 1 2 1 2 4 5 3 4 6 6 6 7 6 6 6 7 8 7 7 6 5 17 22 25 24 24 25 25 24 23 23 20 17 16 17 17 18 17 18 17 18 20 17
5 1 3 1 2 3 2 3 3 4 5 1 7 6 4 6 6 6 6 7 8 8 8 9 7 6 7 6 15 25 27 27 25 26 24 26 26 23 22 21 21 21 18 21 19 18 21 20 20
3 1 2 1 3 4 2 4 3 6 8 6 6 4 6 5 7 4 2 3 5 8 9 9 8 7 8 7 8 14 23 26 27 27 26 27 28 26 24 23 26 23 22 22 21 19 23 19 22
2 2 4 2 3 2 2 3 1 3 2 2 6 5 5 4 5 3 3 6 7 7 9 9 10 10 7 8 7 12 16 22 26 29 29 31 31 28 24 24 27 25 24 23 23 20 23 21 24
0 2 2 6 4 1 2 2 5 4 2 4 7 6 6 5 5 2 4 5 5 7 9 11 11 11 11 8 10 10 14 20 24 29 32 32 32 29 23 25 27 26 23 23 22 22 24 26 26
4 5 3 3 7 3 3 6 4 2 4 7 8 7 6 1 3 4 4 4 5 6 9 11 14 15 14 12 11 13 12 17 21 24 31 32 32 32 25 29 27 25 23 22 21 25 25 27 28
7 1 1 7 4 5 4 7 6 2 4 9 8 6 5 3 2 2 2 1 3 7 10 14 17 20 19 15 12 13 13 15 20 23 28 33 31 32 35 31 29 23 21 21 20 21 25 28 28
2 2 3 4 3 4 6 12 9 8 8 9 6 5 6 5 3 1 2 4 6 9 13 17 21 21 20 17 13 13 14 16 18 21 25 26 29 31 31 31 28 25 20 21 21 21 23 29 30
3 1 3 4 2 5 4 9 16 11 6 6 6 6 6 5 4 3 6 6 9 13 18 22 26 23 18 16 14 12 15 17 17 19 20 24 26 30 29 30 28 29 26 24 22 21 25 24 28
1 3 5 5 2 3 5 14 6 4 2 4 6 5 5 2 4 6 10 9 12 16 18 20 24 24 21 17 15 14 10 16 18 20 20 23 24 29 32 33 35 34 34 28 23 22 24 22 29
2 3 2 3 7 0 6 7 5 4 3 4 4 3 2 1 4 6 10 11 15 19 20 19 23 23 22 19 16 15 16 16 16 21 20 21 23 27 31 37 41 41 37 35 30 29 30 22 26
4 1 3 6 5 3 5 4 4 3 4 5 4 4 4 5 5 5 8 11 15 21 19 19 21 22 23 19 17 20 22 17 21 21 20 20 22 25 28 32 37 38 37 39 45 42 40 32 27
3 3 3 2 1 4 3 2 6 3 2 2 2 3 2 4 5 7 9 11 16 19 19 20 21 21 18 16 17 19 23 21 22 21 20 19 19 22 27 30 37 37 37 35 35 39 38 36 29
4 1 4 4 2 3 3 2 5 2 1 3 1 1 4 6 7 8 11 12 15 17 19 20 20 22 18 16 13 12 18 19 18 18 20 19 21 23 26 30 35 39 40 33 34 32 32 31 32
7 5 4 5 4 3 5 2 7 4 3 4 4 2 6 6 7 8 7 12 16 16 19 21 22 24 22 16 16 16 15 18 22 23 23 21 22 24 26 29 31 34 38 38 34 32 32 34 32
4 2 4 3 2 5 4 5 3 3 3 2 4 4 7 8 7 7 8 12 12 15 19 22 25 26 23 20 16 14 15 16 18 22 21 22 21 21 27 30 32 34 36 37 36 33 32 31 31
2 3 3 3 1 1 3 6 5 3 5 5 6 6 8 8 8 8 9 11 12 15 20 22 26 26 24 20 17 15 15 16 16 17 19 22 23 22 24 29 29 29 31 34 32 31 31 31 32
2 3 1 2 2 4 5 5 4 4 5 8 10 11 12 9 9 8 8 10 13 17 22 22 25 24 23 20 17 17 14 15 16 17 19 20 21 22 25 28 30 30 31 31 29 29 30 30 27
1 1 2 3 4 3 2 5 5 3 3 9 10 16 16 13 11 8 6 10 14 18 23 25 26 24 22 18 18 17 15 15 15 18 19 19 21 23 25 28 29 30 30 30 29 29 31 29 26
2 2 4 2 3 1 2 6 3 5 6 8 14 16 17 14 10 7 8 11 17 21 23 26 25 21 21 18 18 13 13 14 16 18 18 18 20 23 26 28 31 30 31 31 30 29 27 28 25
Wind_Direction
325 339 124 46 64 65 356 35 273 354 7 335 295 61 102 40 41 125 321 17 256 186 181 187 182 174 170 172 167 163 160 157 156 151 158 159 164 157 153 146 142 130 130 130 136 139 132 126 132
323 139 66 79 87 79 277 289 8 323 306 302 271 341 45 72 32 21 334 335 321 208 193 187 193 178 173 171 168 166 165 165 165 162 164 166 167 162 162 152 143 148 137 136 137 145 136 142 133
111 74 80 93 101 150 159 351 304 304 324 353 82 51 53 340 349 341 332 323 314 194 194 192 195 193 185 182 177 177 181 175 172 166 165 171 166 159 151 143 143 153 142 143 143 146 154 147 139
64 21 37 80 96 351 174 297 333 339 310 34 353 57 4 54 341 346 332 322 246 201 198 197 196 202 196 190 189 187 184 184 179 168 161 159 156 152 152 155 153 148 149 149 151 152 156 147 142
46 56 60 69 76 141 288 321 331 18 7 332 339 75 74 49 15 11 8 351 232 206 203 200 201 204 199 191 191 192 192 188 179 169 155 151 150 153 160 163 173 152 155 156 157 158 157 154 153
42 89 60 140 198 289 309 348 329 24 355 336 37 59 278 350 19 15 23 14 340 216 211 205 207 204 203 199 196 190 185 177 171 158 157 157 177 161 187 197 197 169 164 164 162 162 161 159 155
105 78 144 134 168 325 311 323 51 354 353 360 306 79 293 6 14 6 23 33 15 242 223 215 214 212 208 207 198 186 176 169 171 176 178 182 183 177 188 192 189 177 170 171 166 164 164 162 157
96 87 88 69 184 253 329 343 14 61 304 308 315 33 326 302 354 1 8 26 38 47 223 233 229 225 219 212 204 194 195 191 193 200 195 199 197 193 200 198 190 182 170 175 165 167 164 163 166
111 64 114 177 154 294 344 7 325 358 343 343 321 120 305 311 339 356 3 13 29 47 39 257 250 237 227 221 207 205 207 208 206 209 198 196 193 192 202 201 187 187 169 163 175 171 169 168 167
68 86 195 194 169 261 317 26 323 1 358 304 319 319 338 335 349 353 348 359 15 16 28 25 22 252 238 231 228 220 210 210 211 206 200 197 197 197 200 197 186 188 175 177 179 173 174 172 170
55 93 206 267 197 168 271 280 207 326 323 227 185 270 301 291 322 333 340 341 357 349 352 1 356 356 315 242 235 228 214 206 207 210 209 198 199 195 198 194 187 190 173 185 180 177 184 178 177
100 99 126 318 34 350 289 297 290 184 238 208 247 265 280 291 307 313 313 330 347 359 356 343 340 335 334 307 252 233 221 213 209 206 211 202 201 198 196 196 185 185 191 187 189 190 189 182 190
58 311 310 263 273 237 251 262 249 256 258 283 288 257 273 284 290 311 311 17 31 33 26 9 346 327 320 303 258 241 225 217 217 209 210 210 209 207 201 197 189 188 191 196 191 191 183 184 185
333 309 299 338 322 310 307 273 149 264 153 10 22 349 307 281 272 309 71 66 48 38 26 14 3 351 322 298 260 249 247 236 225 216 212 212 217 214 208 203 195 189 194 196 197 198 182 181 171
117 22 2 19 339 14 287 266 229 234 179 307 342 327 310 278 226 188 103 87 49 35 26 14 1 347 337 305 275 259 242 249 237 227 222 220 214 211 215 210 205 194 195 200 199 195 187 182 173
50 61 26 322 353 5 54 278 292 175 17 308 324 328 307 203 143 103 82 57 40 26 14 359 351 343 327 308 283 259 251 247 244 238 231 227 220 218 218 214 207 200 196 195 199 188 179 182 177
7 165 320 320 52 341 53 269 251 250 290 286 290 295 262 223 148 92 84 62 9 3 354 350 343 334 326 300 278 249 242 245 245 242 235 229 224 221 210 208 204 197 196 192 191 184 184 178 171
295 353 304 248 321 9 286 268 282 270 248 253 273 272 227 245 241 311 336 317 339 345 345 343 341 336 323 313 284 254 239 237 242 244 240 234 232 218 214 203 195 188 196 188 189 185 181 179 168
115 163 281 275 303 338 276 282 292 300 240 235 223 211 207 253 269 350 346 326 335 337 339 339 337 335 329 318 307 263 241 230 235 237 238 237 231 229 213 198 185 196 192 191 184 184 180 170 172
309 300 288 281 286 349 332 304 295 324 268 186 192 181 207 256 329 324 342 346 345 340 338 335 334 329 323 309 286 266 258 239 236 238 234 236 232 228 218 207 193 198 195 187 182 197 174 175 176
276 234 311 278 321 260 318 315 344 336 18 80 79 131 108 112 331 334 344 342 339 336 331 328 333 328 321 312 290 253 247 246 239 233 230 225 231 230 216 210 198 189 197 181 187 199 194 176 185
319 358 6 320 20 301 20 277 302 348 332 43 67 68 68 22 345 329 338 329 332 328 323 323 331 331 326 313 289 254 233 225 240 231 224 229 227 225 221 214 201 196 193 193 189 198 196 185 180
266 4 339 332 4 18 360 62 275 354 110 54 102 120 351 329 337 319 306 310 322 330 325 321 325 330 331 319 294 265 243 242 243 231 217 219 229 232 226 220 208 198 198 198 190 187 187 189 178
317 9 48 59 48 9 335 100 293 319 299 152 190 245 353 327 316 307 302 312 328 333 330 329 328 325 332 309 289 268 255 253 237 219 213 220 221 222 223 219 211 202 198 202 200 190 197 202 198
29 34 341 356 21 232 328 0 258 286 295 180 157 29 324 312 304 301 305 316 326 338 338 335 329 321 325 313 285 272 266 252 245 231 218 217 203 204 212 213 206 201 204 203 199 196 193 193 197
13 79 139 273 310 279 317 247 262 313 287 18 21 4 324 316 301 290 294 304 313 327 333 336 330 324 320 320 294 280 264 251 247 238 224 218 211 210 211 208 208 204 203 203 200 197 201 202 204
343 32 173 109 200 18 264 291 304 260 344 4 10 357 323 306 292 285 290 296 310 324 330 334 333 326 314 310 304 282 267 255 239 239 238 232 222 218 213 207 199 199 198 199 197 200 205 211 214
103 173 12 22 333 287 286 280 247 27 344 7 339 318 303 282 286 277 276 304 319 329 333 333 335 323 317 310 304 286 263 258 250 243 239 233 225 213 208 202 201 199 201 198 197 201 205 209 210
45 154 106 147 159 203 296 264 215 43 90 335 323 324 322 303 297 287 291 310 320 333 340 335 333 329 326 316 303 280 264 252 251 245 240 237 224 210 209 206 204 204 201 199 199 203 208 207 198
193 204 166 162 274 182 196 264 345 120 8 347 341 346 333 329 310 306 317 315 330 335 338 335 331 324 321 320 315 288 275 257 246 242 237 229 219 212 209 204 202 202 195 192 196 193 191 189 187